Find Starlink 31001

NORAD ID: 58527 Int'l Des: 2023-191 Owner: SPXS Country: US Constellation: starlink operational
LEOCIRCULAR

Current View

Loading 3D Globe...

About Starlink 31001

Starlink 31001 (NORAD 58527) is a starlink constellation satellite (v2 mini) launched Dec 7, 2023 by SPXS of US. It operates in LEO, CIRCULAR orbit with a mass of 730.00 kg.

About Starlink 31001

Description loading...

Upcoming Passes

Passes for default location (London). Set your location on the main map for personalized predictions.

Altitude History

Loading altitude history...

Two-Line Element Set

1 58527U 23191V 26166.98662093 .00004596 00000-0 17648-3 0 9990
2 58527 42.9994 268.2920 0001221 275.9390 84.1322 15.27569801140500
Epoch: Jun 15, 2026 • Age: 15 hours

Current Status

Altitude 486.1 km
Velocity 7.63 km/s
Sub-Earth Point 38.87°N, 93.74°W
Launch Date Dec 7, 2023
Age 2.5 years
Type internet

Technical Details

Classification Payload
Mass 730.00 kg
Dry Mass 700.00 kg
Total Mass 730.00 kg
Length 0.30 m
Diameter 4.10 m
Span 29.00 m
Shape Box + pan
Manufacturer SPXS
Bus Type Starlink V2M
Phase Status In Orbit
Owner/State SPXS/US

Most Searched